Regional Weather Roundup
Issued by NWS

Home | Current Version | Previous Version | Graphics & Text | Print | Product List | Glossary Off
Versions: 1 2 3 4 5 6 7 8 9 10 11 12 13 14 15 16 17 18 19 20 21 22 23 24 25 26 27 28 29 30 31 32 33 34 35 36 37 38 39 40 41 42 43 44 45 46 47 48 49 50

000
ASUS43 KTOP 300308
RWRKS

WEATHER ROUNDUP FOR KANSAS
NATIONAL WEATHER SERVICE GOODLAND KS
1000 PM CDT TUE JUL 29 2014

NOTE:  "FAIR" INDICATES FEW OR NO CLOUDS BELOW 12,000 FEET WITH NO
SIGNIFICANT WEATHER AND/OR OBSTRUCTIONS TO VISIBILITY.

KSZ001>006-013>018-027>032-041>047-300400-
NORTHWEST KANSAS

CITY           SKY/WX    TMP DP  RH WIND       PRES   REMARKS
GOODLAND       CLOUDY    73  63  70 S10       30.12R
HAYS           CLOUDY    77  55  47 E18       30.11R
HILL CITY      CLOUDY    77  56  48 E10       30.11R
RUSSELL        CLOUDY    76  57  51 E8        30.10R
$$

KSZ061>065-074>080-084>089-300400-
SOUTHWEST KANSAS

CITY           SKY/WX    TMP DP  RH WIND       PRES   REMARKS
DODGE CITY     CLOUDY    70  58  65 S8        30.11R
ELKHART          N/A     71  64  78 S8          N/A
GARDEN CITY    CLOUDY    71  62  73 SE10      30.11R
GREAT BEND     CLOUDY    75  61  60 S5        30.08R
LIBERAL        CLOUDY    72  63  73 SE12      30.11R
PRATT          CLOUDY    70  61  73 SW6       30.11R
$$

KSZ066>073-081>083-090>101-300400-
SOUTHEAST KANSAS

CITY           SKY/WX    TMP DP  RH WIND       PRES   REMARKS
CHANUTE        MOCLDY    68  61  78 CALM      30.09R
COFFEYVILLE    MOCLDY    72  62  71 E5        30.08R
HUTCHINSON     MOCLDY    76  61  59 SE6       30.09R
MEDICINE LODGE   N/A     74  63  68 CALM      30.08R
NEWTON         MOCLDY    73  54  49 E8        30.13R
PARSONS        MOCLDY    69  63  81 NE3       30.09R
WICHITA INTL   MOCLDY    79  63  57 SE13      30.08R
WICHITA JABRA  MOCLDY    73  63  70 SE9       30.09R
WICHITA MCCONL MOCLDY    76  65  69 E12       30.09R
WINFIELD       MOCLDY    77  64  64 SE10      30.10R
$$

KSZ007>012-019>026-033>040-048>060-102>105-300400-
NORTHEAST KANSAS

CITY           SKY/WX    TMP DP  RH WIND       PRES   REMARKS
CONCORDIA      PTCLDY    71  59  65 E6        30.11R
EMPORIA        PTCLDY    68  59  73 SE5       30.10R
LAWRENCE       CLEAR     68  60  75 CALM      30.09R
MANHATTAN      PTCLDY    73  60  63 CALM      30.09R
MARYSVILLE     PTCLDY    70  55  60 NE7       30.12R
OLATHE IND     CLEAR     70  58  65 NE5       30.10R
OLATHE EXE     PTCLDY    73  57  57 N3        30.09R
SALINA         MOCLDY    78  58  49 SE7       30.10R
TOPEKA BILLARD CLEAR     72  61  68 NE5       30.09R
TOPEKA FORBES  PTCLDY    72  59  63 E3        30.09R
$$



USA.gov is the U.S. government's official web portal to all federal, state and local government web resources and services.